| time (UTC) | temp F | wind direction | speed MPH | gust MPH | rain 1hr in | rain 24hr in | rain mn in | humidity % | barometer mb |
| 20260905063102 | 57 | 105 | 0.0 | 0.0 | 0.00 | 0.01 | 0.00 | 81 | 1011.3 |
| 20260905061610 | 57 | 105 | 0.0 | 0.0 | 0.00 | 0.01 | 0.00 | 81 | 1011.3 |
| 20260905060053 | 57 | 105 | 0.0 | 0.0 | 0.00 | 0.01 | 0.00 | 81 | 1011.4 |
| 20260905054552 | 58 | 105 | 0.0 | 0.0 | 0.00 | 0.01 | 0.00 | 81 | 1011.0 |
| 20260905053057 | 58 | 105 | 0.0 | 0.0 | 0.00 | 0.01 | 0.00 | 81 | 1010.7 |
| 20260905051547 | 59 | 105 | 0.0 | 0.0 | 0.00 | 0.01 | 0.00 | 81 | 1011.0 |
| 20260905050045 | 59 | 105 | 0.0 | 0.0 | 0.00 | 0.01 | 0.00 | 81 | 1011.1 |
| 20260905044544 | 59 | 105 | 0.0 | 0.0 | 0.00 | 0.01 | 0.00 | 81 | 1011.0 |
| 20260905043043 | 59 | 105 | 0.0 | 0.0 | 0.00 | 0.01 | 0.00 | 80 | 1011.4 |
| 20260905041544 | 59 | 105 | 0.0 | 0.0 | 0.00 | 0.01 | 0.00 | 78 | 1011.3 |
| 20260905040039 | 59 | 105 | 0.0 | 0.0 | 0.00 | 0.01 | 0.00 | 78 | 1011.2 |
| 20260905034539 | 60 | 105 | 0.0 | 0.0 | 0.00 | 0.01 | 0.01 | 73 | 1011.3 |
| 20260905033039 | 60 | 105 | 0.0 | 0.0 | 0.00 | 0.01 | 0.01 | 71 | 1011.1 |
| 20260905031538 | 61 | 105 | 0.0 | 0.0 | 0.00 | 0.01 | 0.01 | 69 | 1011.1 |
| 20260905030040 | 61 | 105 | 0.0 | 0.0 | 0.00 | 0.01 | 0.01 | 68 | 1011.2 |
| 20260905024540 | 62 | 105 | 0.0 | 0.0 | 0.00 | 0.01 | 0.01 | 68 | 1011.5 |
| 20260905023037 | 63 | 105 | 0.0 | 0.0 | 0.00 | 0.01 | 0.01 | 68 | 1011.8 |
| 20260905021537 | 63 | 105 | 0.0 | 0.0 | 0.00 | 0.01 | 0.01 | 67 | 1011.7 |
| 20260905020053 | 63 | 105 | 0.0 | 0.0 | 0.00 | 0.01 | 0.01 | 66 | 1011.6 |
| 20260905014535 | 64 | 105 | 0.0 | 0.0 | 0.00 | 0.01 | 0.01 | 66 | 1011.7 |
| 20260905013040 | 64 | 105 | 0.0 | 0.0 | 0.00 | 0.01 | 0.01 | 66 | 1011.7 |
| 20260905011534 | 65 | 105 | 0.0 | 0.0 | 0.00 | 0.01 | 0.01 | 67 | 1011.8 |
| 20260905010033 | 65 | 105 | 0.0 | 0.0 | 0.00 | 0.01 | 0.01 | 66 | 1011.8 |
| 20260905004534 | 65 | 105 | 0.0 | 0.0 | 0.00 | 0.01 | 0.01 | 66 | 1011.9 |
| 20260905003033 | 65 | 105 | 0.0 | 0.0 | 0.00 | 0.01 | 0.01 | 66 | 1011.9 |
| 20260905001532 | 66 | 105 | 0.0 | 1.0 | 0.00 | 0.01 | 0.01 | 66 | 1011.8 |
| 20260905000032 | 66 | 99 | 0.0 | 0.0 | 0.00 | 0.01 | 0.01 | 67 | 1011.5 |
| 20260904234531 | 66 | 99 | 0.0 | 1.0 | 0.00 | 0.01 | 0.01 | 67 | 1011.3 |
| 20260904233036 | 67 | 99 | 0.0 | 0.0 | 0.00 | 0.01 | 0.01 | 67 | 1011.1 |
| 20260904231534 | 67 | 99 | 0.0 | 0.0 | 0.00 | 0.01 | 0.01 | 67 | 1011.0 |
| 20260904230030 | 68 | 99 | 0.0 | 0.0 | 0.00 | 0.01 | 0.01 | 65 | 1011.0 |
| 20260904224529 | 69 | 99 | 0.0 | 3.0 | 0.00 | 0.01 | 0.01 | 65 | 1011.0 |
| 20260904223031 | 70 | 96 | 0.0 | 2.0 | 0.00 | 0.01 | 0.01 | 63 | 1010.9 |
| 20260904221529 | 71 | 95 | 0.0 | 5.0 | 0.00 | 0.01 | 0.01 | 62 | 1010.9 |
| 20260904220028 | 70 | 90 | 1.0 | 6.0 | 0.00 | 0.01 | 0.01 | 59 | 1010.8 |
| 20260904214528 | 71 | 220 | 0.0 | 2.0 | 0.00 | 0.01 | 0.01 | 62 | 1010.7 |
| 20260904213030 | 71 | 220 | 0.0 | 2.0 | 0.00 | 0.01 | 0.01 | 62 | 1010.8 |
| 20260904211527 | 72 | 216 | 1.0 | 5.0 | 0.00 | 0.01 | 0.01 | 58 | 1010.9 |
| 20260904210029 | 73 | 234 | 1.0 | 8.0 | 0.00 | 0.01 | 0.01 | 52 | 1010.7 |
| 20260904204526 | 74 | 79 | 0.0 | 7.0 | 0.00 | 0.01 | 0.01 | 54 | 1010.6 |
| 20260904203024 | 74 | 166 | 2.0 | 3.0 | 0.00 | 0.01 | 0.01 | 49 | 1010.7 |
| 20260904201524 | 76 | 138 | 0.0 | 4.0 | 0.00 | 0.01 | 0.01 | 48 | 1010.6 |
| 20260904200023 | 76 | 51 | 0.0 | 7.0 | 0.00 | 0.01 | 0.01 | 46 | 1010.7 |
| 20260904194525 | 76 | 178 | 2.0 | 8.0 | 0.00 | 0.01 | 0.01 | 47 | 1010.6 |
| 20260904193022 | 77 | 215 | 1.0 | 6.0 | 0.00 | 0.01 | 0.01 | 53 | 1010.6 |
| 20260904191522 | 76 | 188 | 2.0 | 6.0 | 0.00 | 0.01 | 0.01 | 50 | 1010.8 |
| 20260904190025 | 75 | 192 | 2.0 | 5.0 | 0.00 | 0.01 | 0.01 | 51 | 1011.0 |
| 20260904184519 | 76 | 196 | 1.0 | 3.0 | 0.00 | 0.01 | 0.01 | 48 | 1010.8 |
| 20260904183017 | 77 | 147 | 2.0 | 5.0 | 0.00 | 0.01 | 0.01 | 44 | 1010.8 |
| 20260904181515 | 76 | 250 | 3.0 | 8.0 | 0.00 | 0.01 | 0.01 | 45 | 1010.9 |
| 20260904180014 | 76 | 165 | 2.0 | 8.0 | 0.00 | 0.01 | 0.01 | 47 | 1011.4 |
| 20260904174515 | 78 | 175 | 1.0 | 9.0 | 0.00 | 0.01 | 0.01 | 46 | 1011.0 |
| 20260904173013 | 78 | 323 | 2.0 | 9.0 | 0.00 | 0.01 | 0.01 | 44 | 1011.0 |
| 20260904171509 | 77 | 197 | 3.0 | 8.0 | 0.00 | 0.01 | 0.01 | 46 | 1011.2 |
| 20260904170007 | 77 | 115 | 2.0 | 9.0 | 0.00 | 0.01 | 0.01 | 46 | 1011.3 |
| 20260904164506 | 77 | 340 | 5.0 | 11.0 | 0.00 | 0.01 | 0.01 | 48 | 1011.1 |
| 20260904163003 | 77 | 74 | 2.0 | 5.0 | 0.00 | 0.01 | 0.01 | 53 | 1011.3 |
| 20260904161608 | 75 | 257 | 2.0 | 6.0 | 0.00 | 0.01 | 0.01 | 59 | 1011.4 |
| 20260904160100 | 75 | 196 | 2.0 | 6.0 | 0.00 | 0.01 | 0.01 | 60 | 1011.6 |
| 20260904154558 | 75 | 355 | 1.0 | 9.0 | 0.00 | 0.01 | 0.01 | 60 | 1011.5 |
| 20260904153112 | 74 | 199 | 2.0 | 6.0 | 0.00 | 0.01 | 0.01 | 61 | 1011.7 |
| 20260904151550 | 75 | 196 | 0.0 | 3.0 | 0.00 | 0.01 | 0.01 | 61 | 1011.8 |
| 20260904150046 | 74 | 184 | 0.0 | 2.0 | 0.00 | 0.01 | 0.01 | 64 | 1012.0 |
| 20260904144542 | 73 | 280 | 0.0 | 3.0 | 0.00 | 0.01 | 0.01 | 69 | 1011.9 |
| 20260904143038 | 71 | 337 | 0.0 | 3.0 | 0.00 | 0.01 | 0.01 | 72 | 1012.0 |
| 20260904141540 | 70 | 78 | 0.0 | 2.0 | 0.00 | 0.01 | 0.01 | 73 | 1012.1 |
| 20260904140035 | 68 | 11 | 0.0 | 4.0 | 0.00 | 0.01 | 0.01 | 76 | 1012.0 |
| 20260904134533 | 67 | 126 | 0.0 | 2.0 | 0.00 | 0.01 | 0.01 | 78 | 1012.0 |
| 20260904133023 | 65 | 126 | 0.0 | 1.0 | 0.00 | 0.01 | 0.01 | 81 | 1012.2 |
| 20260904131521 | 64 | 126 | 0.0 | 2.0 | 0.00 | 0.01 | 0.01 | 82 | 1012.1 |
| 20260904130019 | 63 | 129 | 0.0 | 2.0 | 0.00 | 0.01 | 0.01 | 82 | 1012.2 |
| 20260904124515 | 62 | 128 | 1.0 | 2.0 | 0.00 | 0.01 | 0.01 | 82 | 1012.3 |
| 20260904123011 | 61 | 128 | 0.0 | 1.0 | 0.00 | 0.01 | 0.01 | 82 | 1012.4 |
| 20260904121510 | 62 | 128 | 0.0 | 2.0 | 0.00 | 0.01 | 0.01 | 82 | 1012.3 |
| 20260904120007 | 61 | 128 | 0.0 | 1.0 | 0.00 | 0.01 | 0.01 | 82 | 1012.3 |
| 20260904114507 | 61 | 128 | 0.0 | 0.0 | 0.00 | 0.01 | 0.01 | 82 | 1012.3 |
| 20260904113009 | 61 | 128 | 0.0 | 0.0 | 0.00 | 0.01 | 0.01 | 82 | 1012.2 |
| 20260904111505 | 61 | 128 | 0.0 | 0.0 | 0.00 | 0.01 | 0.01 | 82 | 1012.0 |
| 20260904110002 | 61 | 128 | 0.0 | 0.0 | 0.00 | 0.01 | 0.01 | 82 | 1011.8 |
| 20260904104501 | 61 | 128 | 0.0 | 0.0 | 0.00 | 0.01 | 0.01 | 82 | 1011.9 |
| 20260904103110 | 61 | 128 | 0.0 | 0.0 | 0.01 | 0.01 | 0.01 | 82 | 1011.7 |
| 20260904101559 | 60 | 128 | 0.0 | 0.0 | 0.01 | 0.01 | 0.01 | 82 | 1011.8 |
| 20260904100057 | 61 | 128 | 0.0 | 1.0 | 0.01 | 0.01 | 0.01 | 82 | 1011.9 |
| 20260904094557 | 61 | 128 | 0.0 | 1.0 | 0.01 | 0.01 | 0.01 | 82 | 1011.7 |
| 20260904093057 | 61 | 128 | 0.0 | 1.0 | 0.00 | 0.00 | 0.00 | 82 | 1011.7 |
| 20260904091608 | 61 | 128 | 0.0 | 0.0 | 0.00 | 0.00 | 0.00 | 82 | 1011.7 |
| 20260904090055 | 61 | 128 | 0.0 | 1.0 | 0.00 | 0.00 | 0.00 | 82 | 1011.5 |
| 20260904084555 | 61 | 128 | 0.0 | 0.0 | 0.00 | 0.00 | 0.00 | 82 | 1011.4 |
| 20260904083108 | 61 | 128 | 0.0 | 1.0 | 0.00 | 0.00 | 0.00 | 82 | 1011.5 |
| 20260904081553 | 61 | 128 | 0.0 | 0.0 | 0.00 | 0.00 | 0.00 | 82 | 1011.4 |
| 20260904080052 | 61 | 128 | 0.0 | 0.0 | 0.00 | 0.00 | 0.00 | 82 | 1011.5 |
| 20260904074605 | 61 | 128 | 0.0 | 2.0 | 0.00 | 0.00 | 0.00 | 82 | 1011.3 |
| 20260904073052 | 61 | 128 | 0.0 | 0.0 | 0.00 | 0.00 | 0.00 | 82 | 1011.4 |
| 20260904071549 | 61 | 128 | 0.0 | 0.0 | 0.00 | 0.00 | 0.00 | 82 | 1011.7 |
| 20260904070053 | 61 | 128 | 0.0 | 0.0 | 0.00 | 0.00 | 0.00 | 82 | 1011.6 |
| 20260904064548 | 60 | 128 | 0.0 | 0.0 | 0.00 | 0.07 | 0.00 | 82 | 1012.0 |